DW1174 Weather Reports


Display with metric or nautical units.
time (UTC)temp
F
wind
direction
speed
MPH
gust
MPH
rain 1hr
in
rain 24hr
in
rain mn
in
humidity
%
barometer
mb
20260507141736 53 299 1.0 4.0 0.00 0.00 0.00 62 1010.7
20260507141153 53 298 0.0 4.0 0.00 0.00 0.00 64 1010.8
20260507140834 52 298 1.0 4.0 0.00 0.00 0.00 64 1010.8
20260507140022 52 296 0.0 4.0 0.00 0.00 0.00 62 1010.8
20260507135444 51 296 0.0 0.0 0.00 0.00 0.00 63 1011.0
20260507135139 51 296 0.0 0.0 0.00 0.00 0.00 67 1010.8
20260507134333 51 296 0.0 3.0 0.00 0.00 0.00 67 1011.0
20260507133753 51 309 0.0 6.0 0.00 0.00 0.00 69 1011.0
20260507133228 50 269 1.0 5.0 0.00 0.00 0.00 70 1011.1
20260507132726 50 269 0.0 5.0 0.00 0.00 0.00 69 1011.0
20260507132156 50 262 0.0 2.0 0.00 0.00 0.00 71 1010.8
20260507131607 50 264 0.0 2.0 0.00 0.00 0.00 73 1010.8
20260507131052 49 264 0.0 2.0 0.00 0.00 0.00 74 1011.0
20260507130555 49 264 0.0 0.0 0.00 0.00 0.00 75 1010.7
20260507130008 49 264 0.0 2.0 0.00 0.00 0.00 76 1010.8
20260507125713 49 264 0.0 2.0 0.00 0.00 0.00 75 1010.8
20260507124944 48 263 0.0 5.0 0.00 0.00 0.00 74 1010.7
20260507124639 48 263 0.0 5.0 0.00 0.00 0.00 75 1010.7
20260507123851 48 180 0.0 0.0 0.00 0.00 0.00 75 1010.7
20260507123339 48 180 0.0 4.0 0.00 0.00 0.00 75 1011.0
20260507122814 47 178 0.0 4.0 0.00 0.00 0.00 75 1010.7
20260507122309 47 165 0.0 0.0 0.00 0.00 0.00 76 1010.6
20260507122235 47 165 0.0 0.0 0.00 0.00 0.00 77 1010.7
20260507121151 46 165 0.0 2.0 0.00 0.00 0.00 78 1010.6
20260507120602 46 134 0.0 3.0 0.00 0.00 0.00 78 1010.5
20260507120038 45 134 1.0 3.0 0.00 0.00 0.00 78 1010.4
20260507115538 45 134 1.0 3.0 0.00 0.00 0.00 79 1010.4
20260507115231 45 134 0.0 1.0 0.00 0.00 0.00 81 1010.4
20260507114420 44 134 0.0 2.0 0.00 0.00 0.00 82 1010.3
20260507113905 44 134 0.0 3.0 0.00 0.00 0.00 83 1010.4
20260507113615 44 134 0.0 3.0 0.00 0.00 0.00 83 1010.5
20260507112858 44 134 0.0 0.0 0.00 0.00 0.00 84 1010.4
20260507112307 43 134 0.0 0.0 0.00 0.00 0.00 84 1010.3
20260507111718 43 134 0.0 0.0 0.00 0.00 0.00 84 1010.3
20260507111129 43 134 0.0 3.0 0.00 0.00 0.00 84 1010.3
20260507110557 43 134 1.0 3.0 0.00 0.00 0.00 84 1010.0
20260507110004 43 134 1.0 3.0 0.00 0.00 0.00 85 1010.0
20260507105431 43 134 1.0 3.0 0.00 0.00 0.00 85 1009.9
20260507104901 42 134 1.0 4.0 0.00 0.00 0.00 85 1009.8
20260507104401 42 134 1.0 4.0 0.00 0.00 0.00 85 1009.8
20260507103827 42 134 1.0 4.0 0.00 0.01 0.00 86 1009.8
20260507103521 42 134 1.0 3.0 0.00 0.01 0.00 86 1009.7
20260507102753 42 134 1.0 3.0 0.00 0.01 0.00 86 1009.7
20260507102449 42 134 1.0 4.0 0.00 0.01 0.00 86 1009.7
20260507101922 42 134 2.0 4.0 0.00 0.01 0.00 86 1009.7
20260507101201 42 134 2.0 4.0 0.00 0.01 0.00 86 1009.8
20260507100630 42 134 2.0 4.0 0.00 0.01 0.00 86 1009.7
20260507100350 42 134 2.0 4.0 0.00 0.01 0.00 86 1009.7
20260507095837 42 134 2.0 4.0 0.00 0.01 0.00 86 1009.7
20260507095308 42 134 2.0 4.0 0.00 0.01 0.00 86 1009.7
20260507094537 42 134 2.0 4.0 0.00 0.02 0.00 86 1009.7
20260507094006 42 134 2.0 4.0 0.00 0.02 0.00 86 1009.7
20260507093503 42 134 2.0 5.0 0.00 0.03 0.00 86 1009.6
20260507092956 42 134 2.0 5.0 0.00 0.03 0.00 86 1009.6
20260507092720 42 134 2.0 4.0 0.00 0.04 0.00 86 1009.7
20260507091937 42 134 3.0 4.0 0.00 0.04 0.00 86 1009.7
20260507091410 42 134 3.0 4.0 0.00 0.04 0.00 86 1009.7
20260507091133 42 134 3.0 4.0 0.00 0.04 0.00 87 1009.8
20260507090827 42 134 3.0 5.0 0.00 0.04 0.00 86 1009.7
20260507085816 42 134 3.0 5.0 0.00 0.04 0.00 87 1009.8
20260507085316 42 134 3.0 4.0 0.00 0.04 0.00 87 1009.7
20260507084754 42 134 2.0 5.0 0.00 0.04 0.00 87 1009.8
20260507084226 41 134 1.0 5.0 0.00 0.05 0.00 87 1009.8
20260507083727 41 134 0.0 0.0 0.00 0.05 0.00 87 1009.8
20260507083628 41 134 0.0 0.0 0.00 0.06 0.00 87 1009.8
20260507082556 41 134 0.0 0.0 0.00 0.08 0.00 86 1009.8
20260507082037 41 134 0.0 0.0 0.00 0.08 0.00 86 1009.8
20260507081525 41 134 0.0 0.0 0.00 0.09 0.00 86 1009.9
20260507081016 41 134 0.0 0.0 0.00 0.10 0.00 86 1009.8
20260507080652 41 134 0.0 0.0 0.00 0.10 0.00 86 1009.8
20260507075853 41 134 0.0 3.0 0.00 0.11 0.00 86 1009.8
20260507075527 41 134 0.0 3.0 0.00 0.11 0.00 85 1009.9
20260507074729 42 134 1.0 4.0 0.00 0.12 0.00 85 1009.8
20260507074207 42 134 3.0 5.0 0.00 0.12 0.00 85 1009.8
20260507073710 42 134 3.0 5.0 0.00 0.13 0.00 85 1009.8
20260507073405 42 133 3.0 5.0 0.00 0.14 0.00 85 1009.9
20260507072646 42 132 3.0 5.0 0.00 0.14 0.00 85 1009.8
20260507072116 42 132 3.0 4.0 0.00 0.14 0.00 85 1009.9
20260507071536 42 132 3.0 5.0 0.00 0.14 0.00 85 1009.9
20260507071017 41 132 3.0 5.0 0.00 0.15 0.00 85 1010.0
20260507070441 41 132 3.0 5.0 0.00 0.15 0.00 86 1010.1
20260507070142 41 132 3.0 4.0 0.00 0.15 0.00 86 1010.1
20260507065425 41 131 3.0 4.0 0.00 0.15 0.00 86 1010.1
20260507064852 41 130 3.0 4.0 0.00 0.15 0.00 87 1010.2
20260507064342 41 130 3.0 4.0 0.00 0.15 0.00 87 1010.2
20260507063835 41 130 3.0 4.0 0.00 0.16 0.00 87 1010.2
20260507063308 41 130 3.0 4.0 0.00 0.16 0.00 87 1010.3
20260507062753 41 130 3.0 4.0 0.00 0.16 0.00 87 1010.3
20260507062250 41 130 3.0 4.0 0.00 0.16 0.00 87 1010.4
20260507061725 41 130 3.0 4.0 0.00 0.16 0.00 87 1010.5
20260507061223 41 130 3.0 4.0 0.00 0.17 0.00 87 1010.5
20260507060723 41 130 3.0 4.0 0.00 0.17 0.00 87 1010.5
20260507060147 42 130 3.0 4.0 0.00 0.17 0.00 86 1010.5
20260507055635 42 130 3.0 4.0 0.00 0.17 0.00 86 1010.6
20260507055123 42 130 3.0 4.0 0.00 0.17 0.00 86 1010.6
20260507054622 42 130 2.0 4.0 0.00 0.18 0.00 85 1010.6
20260507054058 42 130 2.0 4.0 0.00 0.18 0.00 85 1010.6
20260507053549 42 130 2.0 4.0 0.00 0.19 0.00 84 1010.7
20260507053050 42 130 2.0 4.0 0.00 0.19 0.00 84 1010.7
20260507052521 42 130 3.0 6.0 0.00 0.20 0.00 84 1010.8
20260507051945 42 129 3.0 6.0 0.00 0.21 0.00 84 1010.7
20260507051636 43 129 3.0 4.0 0.00 0.21 0.00 84 1011.0
20260507050909 43 78 2.0 4.0 0.00 0.22 0.00 84 1011.1
20260507050413 43 78 2.0 4.0 0.00 0.22 0.00 83 1011.2
20260507045831 43 78 2.0 4.0 0.00 0.22 0.00 83 1011.2
20260507045306 43 78 2.0 4.0 0.00 0.22 0.00 83 1011.1
20260507044803 43 77 2.0 4.0 0.00 0.22 0.00 82 1011.1
20260507044307 43 75 2.0 5.0 0.00 0.23 0.00 82 1011.1
20260507043731 43 340 2.0 4.0 0.00 0.23 0.00 82 1011.1
20260507043431 43 338 1.0 3.0 0.00 0.23 0.00 82 1011.1
20260507042903 43 338 0.0 2.0 0.00 0.23 0.00 82 1011.2
20260507042130 43 338 0.0 2.0 0.00 0.24 0.00 82 1011.2
20260507041557 43 338 0.0 0.0 0.00 0.24 0.00 82 1011.2
20260507041031 43 337 0.0 0.0 0.00 0.25 0.00 82 1011.3
20260507040509 43 337 0.0 0.0 0.00 0.26 0.00 83 1011.4
20260507035954 43 337 0.0 0.0 0.00 0.26 0.26 83 1011.5
20260507035435 43 337 0.0 0.0 0.00 0.26 0.26 83 1011.5
20260507034900 43 337 0.0 0.0 0.00 0.27 0.26 83 1011.5
20260507034328 43 337 0.0 0.0 0.00 0.28 0.26 83 1011.5
20260507033801 43 337 0.0 0.0 0.00 0.28 0.26 83 1011.5
20260507033231 43 337 0.0 0.0 0.00 0.29 0.26 83 1011.7
20260507032708 43 337 0.0 0.0 0.00 0.30 0.26 83 1011.8
20260507032137 43 337 0.0 0.0 0.00 0.31 0.26 83 1011.5
20260507031607 43 337 0.0 0.0 0.00 0.32 0.26 83 1011.7
20260507031043 44 337 0.0 0.0 0.00 0.36 0.26 81 1011.6
20260507030537 44 337 0.0 0.0 0.00 0.36 0.26 80 1011.6
20260507030305 44 338 0.0 0.0 0.00 0.38 0.26 79 1011.7
20260507025510 44 337 0.0 0.0 0.00 0.40 0.26 78 1011.6
20260507024934 44 337 0.0 0.0 0.00 0.41 0.26 78 1011.5
20260507024621 44 337 0.0 0.0 0.00 0.43 0.26 79 1011.5
20260507023823 44 337 0.0 0.0 0.00 0.44 0.26 79 1011.6
20260507023243 44 337 0.0 0.0 0.00 0.45 0.26 79 1011.6
20260507022944 44 337 0.0 0.0 0.00 0.47 0.26 80 1011.6
20260507022144 44 337 0.0 0.0 0.00 0.48 0.26 80 1011.6
20260507022047 45 337 0.0 0.0 0.00 0.49 0.26 79 1011.5
20260507021003 45 337 0.0 0.0 0.00 0.51 0.26 79 1011.5
20260507020506 45 337 0.0 0.0 0.00 0.53 0.26 79 1011.6
20260507015946 45 338 0.0 0.0 0.00 0.54 0.26 78 1011.6
20260507015443 45 337 0.0 0.0 0.00 0.55 0.26 79 1011.5
20260507014934 45 337 0.0 0.0 0.00 0.55 0.26 79 1011.6
20260507014415 45 338 0.0 0.0 0.00 0.56 0.26 78 1011.4
20260507013921 45 337 0.0 0.0 0.00 0.56 0.26 79 1011.4
20260507013355 45 337 0.0 0.0 0.00 0.56 0.26 78 1011.4
20260507012900 45 337 0.0 0.0 0.00 0.57 0.26 78 1011.4
20260507012615 45 337 0.0 0.0 0.00 0.57 0.26 78 1011.4
20260507011852 45 337 0.0 0.0 0.00 0.57 0.26 77 1011.4
20260507011325 45 338 0.0 0.0 0.00 0.58 0.26 76 1011.5
20260507011020 45 338 0.0 0.0 0.00 0.59 0.26 76 1011.5
20260507010301 45 337 0.0 0.0 0.00 0.60 0.26 76 1011.5
20260507005727 45 337 0.0 0.0 0.00 0.60 0.26 76 1011.5
20260507005145 45 337 0.0 0.0 0.00 0.60 0.26 75 1011.4
20260507004603 46 337 0.0 0.0 0.00 0.61 0.26 75 1011.5
20260507004012 46 337 0.0 0.0 0.00 0.61 0.26 74 1011.4
20260507003453 46 337 0.0 0.0 0.00 0.61 0.26 74 1011.6
20260507002943 46 338 0.0 0.0 0.00 0.61 0.26 74 1011.5
20260507002425 46 338 0.0 0.0 0.00 0.61 0.26 74 1011.4
20260507001920 46 337 0.0 0.0 0.00 0.61 0.26 74 1011.3
20260507001347 46 337 0.0 0.0 0.00 0.61 0.26 73 1011.3
20260507000815 46 337 0.0 0.0 0.00 0.61 0.26 73 1011.3
20260507000249 47 338 0.0 0.0 0.00 0.61 0.26 74 1011.4
20260506235735 47 337 0.0 0.0 0.00 0.62 0.26 73 1011.4
20260506235215 47 337 0.0 0.0 0.00 0.62 0.26 73 1011.3
20260506234656 47 338 0.0 0.0 0.00 0.63 0.26 72 1011.3
20260506234144 47 337 0.0 0.0 0.00 0.63 0.26 72 1011.2
20260506233624 47 337 0.0 0.0 0.00 0.64 0.26 71 1011.2
20260506233336 47 337 0.0 0.0 0.00 0.65 0.26 72 1011.2
20260506232520 47 337 0.0 0.0 0.00 0.67 0.26 71 1011.3
20260506231941 47 337 0.0 0.0 0.00 0.73 0.26 70 1011.2
20260506231441 47 337 0.0 0.0 0.00 0.76 0.26 69 1011.2
20260506230940 48 337 0.0 0.0 0.00 0.76 0.26 69 1011.2
20260506230350 48 337 0.0 0.0 0.00 0.77 0.26 68 1011.1
20260506225800 48 337 0.0 0.0 0.00 0.79 0.26 70 1011.2
20260506225253 48 337 0.0 0.0 0.00 0.81 0.26 69 1011.1
20260506225011 48 337 0.0 0.0 0.00 0.83 0.26 70 1011.3
20260506224200 48 337 0.0 0.0 0.00 0.85 0.26 69 1011.2
20260506223627 48 337 0.0 0.0 0.00 0.86 0.26 70 1011.0
20260506223032 48 337 0.0 1.0 0.00 0.87 0.26 70 1011.1
20260506222506 48 337 0.0 2.0 0.00 0.88 0.26 69 1011.0
20260506221932 48 336 0.0 4.0 0.00 0.91 0.26 69 1011.0
20260506221409 49 336 0.0 4.0 0.00 0.93 0.26 69 1011.0
20260506220847 48 340 0.0 1.0 0.00 0.95 0.26 68 1011.0
20260506220334 49 340 0.0 2.0 0.00 0.97 0.26 68 1010.8
20260506215748 49 340 0.0 1.0 0.00 0.97 0.26 67 1010.7
20260506215202 49 340 0.0 2.0 0.00 0.97 0.26 67 1010.4
20260506214603 49 340 0.0 2.0 0.00 0.98 0.26 67 1010.5
20260506214042 49 340 0.0 3.0 0.00 1.01 0.26 68 1010.3
20260506213508 49 340 0.0 3.0 0.00 1.03 0.26 67 1010.4
20260506212918 49 16 1.0 3.0 0.00 1.06 0.26 67 1010.4
20260506212332 49 16 1.0 6.0 0.00 1.07 0.26 66 1010.4
20260506211808 49 17 1.0 6.0 0.00 1.09 0.26 66 1010.4
20260506211312 49 348 1.0 4.0 0.00 1.11 0.26 69 1010.4
20260506210748 49 348 1.0 4.0 0.00 1.11 0.26 67 1010.4
20260506210251 49 347 1.0 4.0 0.00 1.13 0.26 67 1010.4
20260506205710 49 346 1.0 4.0 0.00 1.16 0.26 67 1010.4
20260506205413 49 315 0.0 3.0 0.00 1.19 0.26 67 1010.4
20260506204651 49 313 0.0 2.0 0.00 1.20 0.26 67 1010.4
20260506204338 49 310 1.0 4.0 0.00 1.25 0.26 67 1010.3
20260506203819 49 344 1.0 4.0 0.00 1.27 0.26 69 1010.3
20260506203044 49 328 1.0 3.0 0.00 1.29 0.26 69 1010.4
20260506202519 49 327 0.0 3.0 0.00 1.31 0.26 69 1010.4
20260506202031 50 327 1.0 3.0 0.00 1.33 0.26 68 1010.3
20260506201454 50 327 1.0 3.0 0.00 1.34 0.26 66 1010.4
20260506201222 50 327 1.0 4.0 0.00 1.35 0.26 66 1010.4
20260506200441 50 327 2.0 5.0 0.00 1.36 0.26 67 1010.4
20260506195944 51 287 2.0 5.0 0.00 1.38 0.26 65 1010.4
20260506195408 51 287 2.0 5.0 0.00 1.40 0.26 64 1010.3
20260506195114 51 287 2.0 5.0 0.00 1.40 0.26 62 1010.3
20260506194358 51 286 2.0 4.0 0.00 1.41 0.26 62 1010.1
20260506193839 51 286 1.0 4.0 0.00 1.42 0.26 64 1010.3
20260506193333 51 341 1.0 4.0 0.00 1.42 0.26 65 1010.3
20260506192823 51 342 2.0 4.0 0.00 1.42 0.26 64 1010.3
20260506192246 51 344 1.0 6.0 0.00 1.43 0.26 66 1010.2
20260506191736 52 344 1.0 6.0 0.00 1.43 0.26 66 1010.2
20260506191236 51 306 1.0 4.0 0.00 1.43 0.26 68 1010.3
20260506190720 51 329 2.0 6.0 0.00 1.43 0.26 70 1010.3
20260506190212 51 328 2.0 9.0 0.00 1.43 0.26 67 1010.2
20260506185645 51 284 1.0 5.0 0.00 1.43 0.26 68 1010.5
20260506185107 51 293 1.0 5.0 0.00 1.43 0.26 68 1010.3
20260506184539 51 297 1.0 5.0 0.00 1.43 0.26 71 1010.3
20260506184031 51 280 1.0 6.0 0.00 1.43 0.26 68 1010.4
20260506183528 52 266 1.0 5.0 0.00 1.43 0.26 69 1010.4
20260506183248 51 304 2.0 5.0 0.00 1.43 0.26 72 1010.4
20260506182532 51 303 2.0 6.0 0.00 1.43 0.26 72 1010.2
20260506182255 52 355 2.0 10.0 0.00 1.43 0.26 71 1010.3
20260506181525 51 355 3.0 10.0 0.00 1.43 0.26 73 1010.5
20260506181012 51 188 2.0 7.0 0.00 1.43 0.26 74 1010.3
20260506180741 51 309 2.0 5.0 0.00 1.43 0.26 74 1010.2
20260506180010 51 297 2.0 5.0 0.00 1.43 0.26 75 1010.1
20260506175510 50 347 1.0 5.0 0.00 1.43 0.26 76 1010.0
20260506174936 50 281 2.0 7.0 0.00 1.43 0.26 78 1009.8
20260506174851 50 281 2.0 7.0 0.00 1.43 0.26 78 1009.7
20260506173920 51 321 1.0 5.0 0.00 1.43 0.26 78 1009.8
20260506173600 51 301 2.0 5.0 0.00 1.43 0.26 79 1010.0
20260506172835 51 355 2.0 6.0 0.00 1.43 0.26 79 1010.3
20260506172300 51 346 2.0 9.0 0.00 1.43 0.26 79 1010.2
20260506171757 51 261 2.0 9.0 0.00 1.43 0.26 79 1010.2
20260506171300 51 288 2.0 6.0 0.00 1.43 0.26 81 1010.0
20260506170753 51 321 1.0 5.0 0.00 1.43 0.26 81 1009.9
20260506170256 50 314 1.0 9.0 0.00 1.43 0.26 83 1009.8
20260506165947 49 262 2.0 9.0 0.00 1.43 0.26 84 1009.7
20260506165118 49 348 1.0 4.0 0.00 1.43 0.26 87 1009.6
20260506164622 48 355 3.0 7.0 0.00 1.43 0.26 86 1009.4
20260506164333 48 314 3.0 7.0 0.00 1.43 0.26 85 1009.4
20260506163610 48 310 2.0 6.0 0.00 1.43 0.26 86 1009.4
20260506163106 48 344 2.0 5.0 0.00 1.43 0.26 86 1009.5
20260506162606 49 346 3.0 6.0 0.00 1.43 0.26 85 1009.6
20260506162106 49 350 2.0 6.0 0.00 1.43 0.26 86 1009.4
20260506161610 49 286 2.0 5.0 0.00 1.43 0.26 86 1009.3
20260506161043 49 275 2.0 6.0 0.00 1.43 0.26 87 1009.3
20260506160510 49 334 1.0 6.0 0.00 1.43 0.26 87 1009.3
20260506160451 49 345 1.0 5.0 0.00 1.43 0.26 90 1009.2
20260506155507 48 342 2.0 5.0 0.00 1.43 0.26 89 1009.0
20260506154942 48 338 2.0 6.0 0.00 1.43 0.26 90 1009.0
20260506154414 48 321 1.0 6.0 0.00 1.43 0.26 90 1008.9
20260506153910 48 335 1.0 5.0 0.00 1.43 0.26 91 1008.7
20260506153640 48 307 2.0 5.0 0.00 1.43 0.26 93 1008.7
20260506152840 48 321 1.0 5.0 0.00 1.43 0.26 95 1008.5
20260506152306 48 313 0.0 4.0 0.00 1.43 0.26 100 1008.5
20260506151959 48 292 0.0 4.0 0.00 1.43 0.26 97 1008.5
20260506151227 47 296 0.0 3.0 0.00 1.43 0.26 98 1008.5
20260506150917 47 284 1.0 4.0 0.00 1.43 0.26 98 1008.3
20260506150350 47 288 1.0 4.0 0.00 1.43 0.26 99 1008.4
20260506145620 47 263 0.0 5.0 0.00 1.43 0.26 99 1008.2
20260506145124 47 338 1.0 5.0 0.00 1.43 0.26 99 1008.1
20260506144547 47 305 0.0 4.0 0.00 1.43 0.26 99 1008.0
20260506144450 47 305 0.0 3.0 0.00 1.43 0.26 99 1007.9
20260506143440 47 294 0.0 3.0 0.00 1.43 0.26 99 1007.9
20260506142915 47 290 0.0 0.0 0.00 1.43 0.26 99 1007.8
20260506142355 46 290 0.0 0.0 0.00 1.43 0.26 99 1007.8
20260506142039 46 290 0.0 0.0 0.00 1.43 0.26 99 1007.7